Regional Weather Roundup
Issued by NWS Cleveland, OH

Home | Current Version | Previous Version | Graphics & Text | Print | Product List | Glossary On
Versions: 1 2 3 4 5 6 7 8 9 10 11 12 13 14 15 16 17 18 19 20 21 22 23 24 25 26 27 28 29 30 31 32 33 34 35 36 37 38 39 40 41 42 43 44 45 46 47 48 49 50
000
ASUS41 KCLE 272100
RWRCLE
OHIO REGIONAL WEATHER ROUNDUP
NATIONAL WEATHER SERVICE WILMINGTON, OH
400 PM EST SAT DEC 27 2014

NOTE: "FAIR" INDICATES FEW OR NO CLOUDS BELOW 12,000 FEET WITH NO
SIGNIFICANT WEATHER AND/OR OBSTRUCTIONS TO VISIBILITY.

OHZ001>008-015>018-024>027-034-035-043-044-272200-
   NORTHWEST OHIO

CITY           SKY/WX    TMP DP  RH WIND       PRES   REMARKS
DEFIANCE       CLOUDY    48  44  86 SW12      30.00F
FINDLAY        CLOUDY    50  44  80 SW15      30.01S
TOLEDO EXPRESS CLOUDY    47  43  86 SW17G23   29.98S
TOLEDO METCALF CLOUDY    48  44  86 SW15G24   30.01R
LIMA           CLOUDY    49  44  83 SW14      30.03R
$$

OHZ009>014-019>023-028>033-038-089-272200-
   NORTHEAST OHIO

CITY           SKY/WX    TMP DP  RH WIND       PRES   REMARKS
CLE-HOPKINS    CLOUDY    53  34  48 SW10      30.04R
CLE-LAKEFRONT  CLOUDY    55  32  41 S13G22    30.01R
CUY CO. ARPT   CLOUDY    55  36  47 SW12G20   30.02R
LORAIN-ELYRIA  CLOUDY    51  37  58 SW20G26   30.02F
ASHTABULA      CLOUDY    54  26  34 SW13G24   30.01R
AKRON-CANTON   CLOUDY    53  31  42 SW14G22   30.05R
WOOSTER        NOT AVBL
MANSFIELD      CLOUDY    50  39  66 S15       30.03S
YOUNGSTOWN     MOCLDY    56  24  29 SW12G18   30.04R
$$

OHZ042-051>053-060>062-070>072-077>081-272200-
  SOUTHWEST OHIO

CITY           SKY/WX    TMP DP  RH WIND       PRES   REMARKS
CINC-COVINGTON LGT RAIN  49  42  77 S10       30.10S
CINC-LUNKEN    CLOUDY    50  46  86 SW9       30.11S
HAMILTON       LGT RAIN  49  46  90 VRB6      30.11R
DAYTON         NOT AVBL
WRIGHT-PAT AFB CLOUDY    49  45  85 SW15      30.09R
DAYTON GENERAL CLOUDY    49  44  83 SW13G20   30.08S
WILMINGTON     CLOUDY    49  43  80 SW14      30.09R
$$

OHZ036-037-039>041-045>050-054>059-063>069-073>076-082>088-272200-
  CENTRAL AND SOUTHEAST OHIO

CITY           SKY/WX    TMP DP  RH WIND       PRES   REMARKS
COLUMBUS       CLOUDY    53  37  54 S12G20    30.07F
OSU AIRPORT    CLOUDY    52  40  63 SW17      30.06F
BOLTON FIELD   NOT AVBL
RICKENBACK AFB NOT AVBL
NEWARK         CLOUDY    55  37  50 S7        30.06F
MARION         CLOUDY    51  41  68 SW14      30.05S
LANCASTER      CLOUDY    55  36  48 S9        30.08F
ZANESVILLE     CLOUDY    54  32  43 S12       30.09S
NEW PHILLY     CLOUDY    55  31  39 S10G17    30.09R
$$



USA.gov is the U.S. government's official web portal to all federal, state and local government web resources and services.